SL-16 DEB

Satellite information

Favourite Embed

Satellite Type and Status

DEBRISIN ORBIT

Key statistics

Satellite SL-16 DEB at a glance.

Uptime

10637

Days in orbit

Revolutions

≈ 13.8

Per day

Orbit

LEO

Low Earth Orbit

Inclination

71.0

Latest

Satellite identification and parameters

Extended collection of information and parameters for SL-16 DEB.

Object identification

Identified? True

Debris? True

Object name: SL-16 DEB

International designator: 1996-051C

Object number (NORAD): 24299

Object ID (CCSDS): 24299

Country: COMMONWEALTH OF INDEPENDENT STATES (CIS)

Current information (Y/N): Y

RCS size: SMALL

Orbital parameters

Period: 104.667 minutes

Inclination: 71.0372 deg

SMA: 7356.992 km

Apoapsis: 1118.487 km

Periapsis: 839.228 km

RAAN: 190.1061 deg

Eccentricy: 0.01897919

Argument of periapsis: 0.0838 deg

Mean anomaly: 0.0262 deg

Mean motion: 13.7579049 rev/day

Mean motion (dot): 0.00000281 rev/day2

B* drag term: 0.00029361113 1/REarth

Two-line elements (TLE)

Creation date: Oct. 19, 2025, 2:20 a.m.

Reference frame: TEME

Reference center: EARTH

Epoch: Oct. 18, 2025, 11:25 p.m. UTC

TLE line 0: 0 SL-16 DEB

TLE line 1: 1 24299U 96051C 25291.97588069 .00000281 00000-0 29361-3 0 9993

TLE line 2: 2 24299 71.0372 190.1061 0189792 0.0838 0.0262 13.75790490461546

Live tracking on map

Real-time ground track for satellite SL-16 DEB.

In-orbit conjunctions

A list of the most updated potential collisions computed for object SL-16 DEB.

Target Orbit TCA Probability of collision Miss distance Type
SL-16 R/B LEO 2025-08-06 06:35:21 0.0005644114 71.0 (m) ROCKET BODY

Associated space launch

Second generation ELING satellite

SL-16 DEB was lifted into orbit during the mission ‘Zenit-2 | Tselina-2 18’, on board a Zenit-2 space rocket.

The launch took place on Sept. 4, 1996, 9:01 a.m. from 45/1.

For more information about the launch, click the button.

Launch to space Zenit-2 | Tselina-2 18
Zenit-2 | Tselina-2 18

Agency: N/A

Status: Launch Successful

Launch date: Sept. 4, 1996, 9:01 a.m. UTC

Rocket: Zenit-2

Launch pad: 45/1

Location: Baikonur Cosmodrome, Republic of Kazakhstan

...

Latest news about this satellite

There are no fresh news available about this satellite. Check back as we update our databases every day.


Newsletter sign-up

Weekly statistics, charts and insights to help you stay on top of the space industry.